TimePST,TemperatureF,Dew PointF,Humidity,Sea Level PressureIn,VisibilityMPH,Wind Direction,Wind SpeedMPH,Gust SpeedMPH,PrecipitationIn,Events,Conditions,WindDirDegrees,DateUTC
12:58 AM,33.8,23.7,67,30.41,10.0,ESE,10.4,-,N/A,,Clear,110,2013-01-15 08:58:00
1:58 AM,34.2,23.9,66,30.43,10.0,East,8.1,-,N/A,,Clear,100,2013-01-15 09:58:00
2:58 AM,34.3,23.9,66,30.44,10.0,East,6.9,-,N/A,,Clear,100,2013-01-15 10:58:00
3:58 AM,32.7,23.5,69,30.45,10.0,East,1.2,-,N/A,,Clear,100,2013-01-15 11:58:00
4:58 AM,28.4,24.6,86,30.46,10.0,NW,2.3,-,N/A,,Clear,320,2013-01-15 12:58:00
5:58 AM,29.1,24.8,84,30.47,10.0,NNE,2.3,-,N/A,,Clear,20,2013-01-15 13:58:00
6:58 AM,28.2,24.3,85,30.48,10.0,NNW,2.3,-,N/A,,Clear,340,2013-01-15 14:58:00
7:58 AM,30.2,24.1,78,30.50,10.0,ENE,4.6,-,N/A,,Scattered Clouds,70,2013-01-15 15:58:00
8:58 AM,36.1,28.4,73,30.52,10.0,NNW,2.3,-,N/A,,Scattered Clouds,340,2013-01-15 16:58:00
9:58 AM,41.7,30.7,65,30.53,10.0,WNW,4.6,-,N/A,,Scattered Clouds,300,2013-01-15 17:58:00
10:58 AM,43.9,29.1,56,30.51,10.0,WNW,4.6,-,N/A,,Scattered Clouds,290,2013-01-15 18:58:00
11:58 AM,45.7,28.8,52,30.48,10.0,SW,2.3,-,N/A,,Scattered Clouds,230,2013-01-15 19:58:00
12:58 PM,48.0,27.7,45,30.46,10.0,SSW,4.6,-,N/A,,Clear,200,2013-01-15 20:58:00
1:58 PM,48.6,27.7,44,30.45,10.0,Variable,3.5,-,N/A,,Partly Cloudy,0,2013-01-15 21:58:00
2:58 PM,49.1,27.9,44,30.45,10.0,SSW,5.8,-,N/A,,Partly Cloudy,200,2013-01-15 22:58:00
3:58 PM,48.7,30.0,48,30.45,10.0,SW,5.8,-,N/A,,Clear,220,2013-01-15 23:58:00
4:58 PM,45.0,31.3,59,30.45,10.0,SSW,4.6,-,N/A,,Clear,200,2013-01-16 00:58:00
5:58 PM,41.7,29.7,62,30.45,10.0,Calm,Calm,-,N/A,,Clear,0,2013-01-16 01:58:00
6:58 PM,36.7,30.2,77,30.45,10.0,ENE,2.3,-,N/A,,Clear,70,2013-01-16 02:58:00
7:48 PM,35.6,30.2,81,30.44,9.0,ENE,4.6,-,N/A,,Clear,70,2013-01-16 03:48:00
7:58 PM,36.9,29.5,75,30.44,9.0,East,4.6,-,N/A,,Clear,80,2013-01-16 03:58:00
8:58 PM,35.6,30.2,81,30.44,9.0,ENE,3.5,-,N/A,,Clear,70,2013-01-16 04:58:00
9:28 PM,35.6,30.2,81,30.44,7.0,NE,2.3,-,N/A,,Clear,40,2013-01-16 05:28:00
9:58 PM,34.0,29.1,82,30.44,8.0,Calm,Calm,-,N/A,,Clear,0,2013-01-16 05:58:00
10:58 PM,31.8,28.2,87,30.45,7.0,NNW,2.3,-,N/A,,Clear,330,2013-01-16 06:58:00
11:19 PM,33.8,28.4,81,30.45,6.0,Calm,Calm,-,N/A,,Haze,0,2013-01-16 07:19:00
11:29 PM,32.0,28.4,87,30.45,8.0,Calm,Calm,-,N/A,,Clear,0,2013-01-16 07:29:00
11:58 PM,30.7,27.7,88,30.45,7.0,North,1.2,-,N/A,,Clear,360,2013-01-16 07:58:00